Weather Roundup
Issued by NWS Springfield, MO

Home | Current Version | Previous Version | Text Only | Print | Product List | Glossary On
Versions: 1 2 3 4 5 6 7 8 9 10 11 12 13 14 15 16 17 18 19 20 21 22 23 24 25 26 27 28 29 30 31 32 33 34 35 36 37 38 39 40 41 42 43 44 45 46 47 48 49 50
000
NZUS99 KSGF 292159
HRRSGF

HOURLY WEATHER
NATIONAL WEATHER SERVICE SPRINGFIELD MO
500 PM CDT FRI MAY 29 2015

......SGF CWA......

CITY           SKY/WX    TMP DP  RH WIND       PRES   REMARKS
SPRINGFIELD    LGT RAIN  73  69  87 NE10      29.94F
JOPLIN         TSTM      65  64  97 NW17      30.00R FOG
WEST PLAINS    PTSUNNY   80  70  71 NE7       29.97F
ROLLA          PTSUNNY   74  66  76 CALM      29.98F
OSAGE BEACH    CLOUDY    73  63  68 E5        29.98F
BRANSON        CLOUDY    73  72  94 NE6       29.95F

......SURROUNDING SGF CWA......

CITY           SKY/WX    TMP DP  RH WIND       PRES   REMARKS
CHANUTE        CLOUDY    69  67  93 SE7       29.96S
PARSONS        LGT RAIN  69  67  93 CALM      29.97S
COFFEYVILLE    LGT RAIN  68  67  96 SE5       29.95R
EMPORIA        CLOUDY    71  65  81 SE9       29.96S
SILOAM SPRINGS CLOUDY    66  61  82 NW12      29.97R THUNDER
HARRISON AR    CLOUDY    79  66  64 SE13G22   29.94F
NEAR YELLVILLE   N/A     82  70  65 SE7       29.92F

......KANSAS AND MISSOURI......

CITY           SKY/WX    TMP DP  RH WIND       PRES   REMARKS
KANSAS CTY INT CLOUDY    69  66  90 SW9       29.96S
DOWNTOWN KC    LGT RAIN  70  65  84 W3        29.96R
COLUMBIA       PTSUNNY   75  66  73 W3        29.98F
SEDALIA        LGT RAIN  72  67  84 S3        29.99F
ST JOSEPH      CLOUDY    71  66  84 S10       29.94F
ST LOUIS       PTSUNNY   81  67  62 SW9       29.97F
SPIRIT OF STL  PTSUNNY   79  70  74 SW5       29.95F
KIRKSVILLE     PTSUNNY   74  65  73 W3        29.93F
WICHITA        PTSUNNY   78  61  55 CALM      29.93F
TOPEKA         CLOUDY    73  66  78 S9        29.95F
OLATHE         CLOUDY    68  65  90 S8        29.96F

......TENNESSEE......

CITY           SKY/WX    TMP DP  RH WIND       PRES   REMARKS
MEMPHIS        PTSUNNY   75  68  78 S6        30.02S THUNDER
NASHVILLE      MOSUNNY   82  67  60 S13       30.07F

......ARKANSAS.......

CITY           SKY/WX    TMP DP  RH WIND       PRES   REMARKS
FAYETTEVILLE   CLOUDY    70  66  87 CALM      29.95R
FT SMITH       TSTM      70  66  87 VRB3      29.92S FOG
LITTLE ROCK    PTSUNNY   87  67  51 SE14      29.91F HX  90

......OKLAHOMA.......

CITY           SKY/WX    TMP DP  RH WIND       PRES   REMARKS
TULSA          CLOUDY    68  67  96 NE7       29.92F
PONCA CITY     CLOUDY    76  66  71 E7        29.93F
MCALESTER      CLOUDY    74  69  85 N14       29.89F
OKLAHOMA CITY  CLOUDY    78  62  57 W3        29.93F

......IOWA............

CITY           SKY/WX    TMP DP  RH WIND       PRES   REMARKS
DES MOINES     CLOUDY    74  64  71 SW16      29.89S
QUAD CITIES    PTSUNNY   80  64  58 SW15      29.89F

......ILLINOIS........

CITY           SKY/WX    TMP DP  RH WIND       PRES   REMARKS
QUINCY         CLOUDY    75  66  73 SW9       29.95F
CHICAGO        LGT RAIN  77  66  68 SW10      29.90F




USA.gov is the U.S. government's official web portal to all federal, state and local government web resources and services.